METEOR 2-17 DEB, 35373

Orbit data source: Space-Track

METEOR 2-17 DEB, 35373 is space debris in LEO originally from a launch on Sat, 30 Jan 1988 UTC launched from the Plesetsk Missile And Space Complex (PKMTR). Debris objects in space refer to the collection of defunct objects orbiting the Earth. Examples of debris include non-operational satellites, rocket bodies, and fragments generated from explosions, collisions, or faulty payload assembly.

Loading next visibility...
Identifier
35373, 1988-005AH
Orbit
LEO
Last TLE update
2 weeks ago
Origin
Manufacturer
Unknown
Mission
Spacecraft
Bus & Motor
Unknown
Mass
Unknown
Launch date (UTC)
1988-01-30 (37 years ago)
Launch vehicle
Unknown
Launch site
Plesetsk Missile And Space Complex (PKMTR)
Object type
Payload
Rocket body
Debris
Shape & HBR
Unknown
Radar Cross Section
Small (<0.1 m²)

Expand to show TLE details & history

TLE from 2 weeks ago
0 METEOR 2-17 DEB
1 35373U 88005AH  25117.06090775  .00004398  00000-0  29486-2 0  9997
2 35373  82.5267 236.8076 0024055  53.8598 306.4793 14.00461628534005
Epoch: 2025-04-27T01:27Z
Definitive object data (Epoch: 2025-04-27T01:27:42.429Z)
Latitude
0.00003°
Longitude
-0.41388°
Altitude
884.749 km
Speed
7.415 km/s
True Right ascension
15h 47m 13s
True Declination
0° 00' 00"
Sunlit
Object was in full shadow at TLE epoch
Visualization TLE readout
Latitude
-67.96551°
Longitude
-29.32711°
Altitude
916.579 km
Speed
7.393 km/s
Apparent Right ascension
08h 10m 56s
Apparent Declination
-68° 19' 30"
Sunlit
Object is in full shadow
Visualization observer readout
Local Sidereal Time
17:55:15
Azimuth
201.771° SSW
Elevation
-56.238°
Doppler factor
1
Orbital elements
Apogee altitude
906.809 km
Perigee altitude
871.845 km
Semi-major axis
7,267.464 km
Eccentricity
0.0024055
Inclination
82.5267°
RAAN
236.8076°
Arg. of periapsis
53.8598°
True anomaly
306.25726°
Mean anomaly
306.4793°
Eccentric anomaly
306.36832°
Mean motion
3.50323 °/min
BSTAR
0.0029486
Orbital period
102.76 mins
Loading maneuver chart data...
Loading SW <> Apogee altitude chart data...
Loading historical data...
Loading historical data...
Loading historical data...
Loading historical data...
Loading historical data...
Loading historical data...
Loading historical data...

METEOR 2-17 DEB Visibility forecast

Observer location: undefined°, undefined°

Span
Click to sort rows by Start time (UTC) header in descending order
Start Az.
Max El. time (UTC)
Max El. Az.
Max El.
End time (UTC)
End Az.
9 mins2025-05-09 17:31:52.153Z16.216° NNE2025-05-09 17:35:52.153Z66.069° ENE27.753°2025-05-09 17:40:52.153Z133.585° SE
9 mins2025-05-09 19:15:52.153Z326.8° NNW2025-05-09 19:19:52.153Z271.306° WNW28.751°2025-05-09 19:24:52.153Z210.2° SW
10 mins2025-05-10 06:46:52.153Z165.791° S2025-05-10 06:51:52.153Z73.08° E38.695°2025-05-10 06:56:52.153Z16.968° NNE
6 mins2025-05-10 08:32:52.153Z258.585° W2025-05-10 08:35:52.153Z296.736° NW18.108°2025-05-10 08:38:52.153Z330.753° NNW
|